Flag for Poland Weather past 2 weeks in Legnica, Poland

Now
57 °F

Low clouds.


Feels Like: 57 °F
Forecast: 51 / 72 °F
Wind: 1 mph from North

Location: Wroclaw Ii

Current Time: Sep 2, 2014 at 8:57:33 PM

Latest Report: Sep 2, 2014 at 8:00 PM


Visibility: 8 mi

Pressure: 30.17 "Hg

Humidity: 93%

Dew point: 55 °F

Location of LegnicaLocation

Historic Weather in Legnica — Graph

°F

Legnica temperature yesterday

Maximum temperature yesterday: 63 °F (at 4:00 PM)
Minimum temperature yesterday: 58 °F (at 7:00 AM)
Average temperature yesterday: 60 °F

Past Weeks' High & Low Weather Summary

 TemperatureHumidityPressure
High76 °F (Aug 30, 1:00 PM)98% (Aug 27, 8:00 AM)30.15 "Hg (Aug 27, 8:00 AM)
Low45 °F (Aug 22, 4:00 AM)33% (Aug 28, 5:00 PM)29.74 "Hg (Aug 18, 7:00 PM)
Average60 °F74%29.97 "Hg
* Reported Aug 18 7:00 PM — Sep 2 7:00 PM, Legnica, Weather by CustomWeather, © 2014

Note: Actual official high and low records may vary slightly from our data, if they occured in-between our weather recording intervals... More about our weather records

Advertising

Legnica weather history for previous 24 hours

 ConditionsComfort  
Time TempWeatherWind HumidityBarometerVisibility
7:00 PM
Sep 2
57 °FLow clouds.2 mph93%30.15 "Hg9 mi
6:00 PM57 °FDrizzle. Low clouds.3 mph94%30.14 "Hg3 mi
5:00 PM57 °FLight rain. Low clouds.3 mph94%30.13 "Hg4 mi
4:00 PM58 °FLight rain. Low clouds.3 mph94%30.12 "Hg5 mi
3:00 PM58 °FLight rain. Low clouds.3 mph94%30.11 "Hg6 mi
2:00 PM58 °FDrizzle. Low clouds.2 mph95%30.10 "Hg2 mi
1:00 PM58 °FLight rain. Low clouds.2 mph93%30.09 "Hg9 mi
12:00 PM57 °FLight rain. Low clouds.2 mph93%30.09 "Hg9 mi
11:00 AM57 °FLight rain. Low clouds.2 mph93%30.08 "Hg9 mi
10:00 AM57 °FLight rain. Low clouds.3 mph92%30.06 "Hg9 mi
9:00 AM57 °FLight rain. Low clouds.3 mph94%30.05 "Hg9 mi
8:00 AM57 °FLight rain. Low clouds.3 mph94%30.04 "Hg6 mi
7:00 AM58 °FLight rain. Low clouds.3 mph94%30.03 "Hg7 mi
6:00 AM59 °FRain. Low clouds.3 mph95%30.02 "Hg5 mi
5:00 AM59 °FLight rain. Low clouds.2 mph96%30.01 "Hg4 mi
4:00 AM59 °FLight rain. Low clouds.2 mph96%30.02 "Hg2 mi
3:00 AM59 °FLight rain. Low clouds.2 mph96%30.02 "Hg2 mi
2:00 AM59 °FLight rain. Low clouds.2 mph96%30.03 "Hg2 mi
1:00 AM59 °FLight rain. Low clouds.2 mph96%30.03 "Hg2 mi
12:00 AM60 °FLight rain. Low clouds.2 mph97%30.03 "Hg2 mi
11:00 PM
Sep 1
60 °FLight rain. Low clouds.2 mph96%30.03 "Hg2 mi
10:00 PM60 °FLight rain. Low clouds.2 mph96%30.03 "Hg2 mi
9:00 PM60 °FLight rain. Low clouds.2 mph97%30.03 "Hg2 mi
8:00 PM61 °FLight rain. Low clouds.2 mph95%30.01 "Hg2 mi
Weather by CustomWeather, © 2014

See weather overviewHow to use our weather pages